Temperature
14 14 14 13 13 13 13 13 13 13 13 13 13 13 13 12 12 12 12 12 12 12 12 12 12 11 11 11 11 11 11 11 11 11 10 10 10 10 10 10 10 10 11
14 13 13 13 13 13 13 13 13 13 13 13 13 12 12 12 12 12 12 12 12 12 11 11 11 11 11 11 11 11 10 10 10 10 10 10 10 10 10 10 10 10 10
13 13 13 13 13 13 12 12 12 12 12 12 12 12 12 12 12 11 11 11 11 11 11 11 11 11 11 11 10 10 10 10 10 10 10 10 10 10 9 9 9 10 10
13 13 13 13 12 12 12 12 12 12 12 12 12 12 12 11 11 11 11 11 11 11 11 11 11 10 10 10 10 10 10 9 9 9 9 9 9 9 9 9 9 9 9
13 13 12 12 12 12 12 12 12 11 12 11 11 11 11 11 11 11 11 11 11 11 10 10 10 10 10 10 10 9 9 9 9 9 9 9 9 9 9 9 9 9 9
12 12 12 12 12 12 11 11 11 11 11 11 11 11 11 11 11 11 11 10 10 10 10 10 10 10 10 10 9 9 9 9 9 9 9 9 8 8 8 8 8 8 8
12 12 12 12 11 11 11 11 11 11 11 10 10 10 10 10 10 10 10 10 10 10 10 10 10 10 9 9 9 9 9 8 8 8 8 8 8 8 8 8 8 8 8
12 12 11 11 11 11 11 10 10 10 10 10 9 9 9 9 10 10 10 10 10 10 10 10 9 9 9 9 9 8 8 8 8 8 8 8 8 8 8 8 8 8 8
11 11 11 11 11 11 10 10 10 10 10 10 9 9 9 8 8 9 9 9 9 9 9 9 9 9 8 8 8 8 8 8 7 7 8 8 7 7 7 7 7 7 7
11 11 11 11 10 10 10 10 10 9 9 9 9 9 8 8 8 8 8 8 8 9 9 9 8 8 8 8 8 7 7 7 7 7 7 7 7 7 7 7 7 7 7
11 10 10 10 10 10 10 9 9 9 9 9 8 8 8 8 8 7 7 8 8 8 8 8 8 8 8 7 7 7 7 7 6 6 6 6 6 6 7 7 7 7 6
10 10 10 10 10 9 9 9 9 9 9 8 8 8 8 7 7 7 7 7 7 7 7 7 7 7 7 7 7 6 6 6 6 6 6 6 6 6 6 6 6 6 6
10 10 9 9 9 9 9 9 9 8 8 8 8 8 7 7 7 7 6 6 6 6 6 7 7 6 6 6 6 6 6 6 6 5 5 5 5 5 5 6 6 6 6
9 9 9 9 9 9 8 8 8 8 8 7 7 7 7 7 7 6 6 5 5 5 5 6 6 6 6 5 5 5 5 5 5 5 5 5 5 5 5 5 5 5 5
9 9 8 8 8 8 8 8 8 7 7 7 7 7 6 6 6 6 6 5 4 4 4 5 5 5 5 5 5 4 4 4 4 4 4 4 4 5 5 5 5 5 5
8 8 8 8 8 8 8 7 7 7 7 6 6 6 6 6 5 5 5 5 4 4 3 4 4 4 4 4 4 4 4 4 4 4 4 4 4 4 4 4 4 4 4
7 7 7 7 7 7 7 7 6 6 6 6 5 5 5 5 5 5 4 4 4 3 3 3 4 4 3 3 3 3 3 3 3 3 3 3 3 3 3 4 4 4 4
7 7 6 6 6 6 6 6 6 6 5 5 5 5 5 4 4 4 4 3 3 3 2 2 3 3 3 3 3 3 3 3 3 3 3 3 3 3 3 3 3 3 3
6 6 6 6 6 6 6 5 5 5 5 4 4 4 4 3 3 3 3 3 2 2 2 2 2 2 2 2 2 2 2 2 2 2 2 2 2 2 2 2 2 2 3
5 5 5 5 5 5 5 4 4 4 4 4 3 3 3 3 2 2 2 2 2 2 1 1 2 2 2 1 1 2 2 2 2 2 2 2 2 2 2 2 2 2 2
5 5 5 4 4 4 4 4 3 3 3 3 3 2 2 2 2 1 1 1 1 1 1 1 1 1 1 1 1 1 1 1 1 1 1 2 1 2 2 2 2 2 2
4 4 4 4 4 4 3 3 3 2 2 2 2 2 1 1 1 1 1 1 1 1 0 0 0 0 0 0 -0 -0 -0 -0 -0 0 0 1 1 1 1 1 1 1 1
3 3 3 3 3 3 3 2 2 2 2 1 1 1 1 1 1 1 0 0 0 0 0 -0 -0 -0 -0 -0 -1 -1 -1 -1 -1 -1 -1 -0 0 0 0 0 1 1 1
3 3 3 3 2 2 2 2 1 1 1 1 1 0 0 0 0 -0 -0 0 0 0 0 -0 -0 -0 -0 -1 -1 -1 -1 -1 -1 -1 -1 -1 -0 -0 -0 0 0 0 0
2 2 2 2 2 1 1 1 1 1 0 0 -0 -0 -0 -0 -0 -0 -0 -0 -0 -0 -0 -0 -0 -0 -1 -1 -1 -1 -1 -1 -1 -1 -1 -2 -1 -1 -1 -0 -0 -0 -0
2 1 1 1 1 1 1 0 0 -0 -0 -0 -1 -1 -1 -1 -1 -1 -1 -1 -1 -0 -0 -0 -0 -0 -0 -1 -1 -1 -2 -2 -3 -2 -2 -2 -2 -2 -2 -1 -1 -0 -1
Wind_Speed
3 3 3 3 3 3 3 2 2 2 2 1 1 1 1 1 1 1 3 3 3 4 4 4 4 3 4 4 5 5 5 6 6 7 7 8 8 9 9 8 9 9 11
4 3 2 2 2 2 2 2 2 1 1 1 1 1 1 1 2 2 3 4 4 4 5 6 6 5 5 6 6 6 6 7 7 7 8 9 9 9 10 10 11 11 11
5 4 2 1 1 1 2 2 2 2 1 1 1 2 1 2 2 3 3 3 4 5 5 6 6 7 7 7 7 7 7 8 8 8 9 10 10 10 11 11 12 12 13
5 4 2 1 2 2 2 1 1 1 0 1 1 2 2 2 2 2 2 3 4 4 5 6 6 7 8 9 9 9 9 9 9 10 10 11 11 11 12 12 12 13 13
5 4 2 2 3 2 1 1 1 1 1 1 1 2 2 1 2 2 2 3 3 3 4 5 6 7 8 9 10 10 10 10 11 11 11 12 12 13 13 13 13 13 13
4 4 2 2 3 2 1 1 1 0 0 1 1 2 2 2 2 1 2 2 2 3 4 4 5 5 8 9 10 11 11 11 12 12 12 12 13 13 13 13 14 14 15
4 3 2 2 2 2 2 2 1 0 0 0 1 2 2 2 2 2 2 1 2 3 3 3 4 4 6 8 10 11 12 13 13 12 13 13 14 14 14 14 15 15 15
3 3 3 2 2 2 2 2 2 1 0 0 1 1 2 3 2 2 2 2 2 2 3 4 4 4 6 6 8 11 12 13 14 14 14 14 15 15 16 16 16 16 16
3 3 3 2 2 2 2 3 3 3 1 0 0 2 1 3 2 2 2 2 2 2 2 3 4 5 6 6 7 9 11 13 14 15 16 16 16 16 17 17 17 17 17
2 2 2 2 2 2 2 2 2 2 2 1 0 0 1 2 2 3 3 2 2 3 3 3 4 5 6 6 8 10 12 13 15 16 16 16 17 17 17 18 18 18 18
1 1 2 2 2 2 2 2 2 2 2 2 2 1 0 1 2 2 4 4 3 3 3 4 4 5 6 7 8 10 13 14 15 16 16 17 17 18 19 19 19 19 19
0 0 1 2 2 2 2 2 2 2 2 2 2 2 2 2 2 2 3 5 5 4 4 4 3 4 6 7 9 12 14 15 16 16 17 17 18 19 19 20 20 19 19
1 2 1 2 2 1 2 2 2 2 2 2 2 2 2 3 2 2 3 4 5 4 3 3 3 4 6 7 9 12 13 15 16 17 17 18 18 19 20 20 20 20 20
2 2 2 1 1 1 1 1 1 1 1 2 2 2 2 2 2 2 3 3 5 5 4 5 3 4 5 7 10 13 12 15 17 18 18 18 19 19 20 20 20 20 20
1 1 1 1 1 1 1 1 1 1 1 1 1 2 2 2 2 2 2 3 4 6 7 5 4 3 5 8 11 11 11 15 17 18 18 18 19 19 20 20 20 19 19
1 1 1 1 1 1 1 1 1 0 1 1 1 1 2 2 2 2 2 3 3 5 7 5 5 5 6 9 12 12 12 16 17 17 18 18 18 18 18 18 18 18 18
2 1 1 1 1 1 1 1 1 0 1 1 1 1 2 2 2 2 2 2 3 3 7 8 5 5 5 6 8 10 11 11 13 16 18 18 18 18 18 18 18 19 19
1 1 1 1 1 0 1 1 1 1 1 2 2 2 3 2 3 3 2 3 4 4 6 9 8 6 6 6 7 8 9 11 11 16 18 18 18 18 18 18 18 18 18
2 1 1 1 0 0 0 1 1 1 2 2 2 2 3 3 4 3 3 4 4 5 5 7 8 6 5 5 7 8 9 8 11 14 16 17 17 18 18 18 19 18 18
2 1 1 0 0 1 1 1 1 1 2 2 2 3 3 3 4 5 4 5 5 5 5 6 7 7 6 5 5 7 8 7 8 10 13 14 16 18 18 18 18 18 18
1 1 1 1 1 1 1 1 1 1 2 2 3 3 3 5 6 6 5 5 5 5 5 6 7 7 7 6 6 6 9 9 9 6 6 8 9 9 11 15 16 17 18
2 1 1 1 1 2 3 4 3 2 2 2 3 4 4 5 7 9 10 9 8 7 7 7 7 8 9 8 7 7 8 9 8 3 5 9 6 8 8 9 14 17 18
2 2 1 1 1 3 4 4 5 3 2 3 4 5 5 6 7 5 8 10 10 11 11 9 9 10 10 9 8 9 8 9 10 7 7 10 6 8 8 11 17 18 18
1 1 2 2 2 3 5 5 6 3 2 3 4 5 6 6 6 6 6 7 7 8 9 8 8 10 10 9 8 9 10 10 10 7 5 8 7 7 9 9 15 16 16
1 1 2 2 2 4 5 5 5 2 3 4 5 5 6 7 10 10 7 7 8 8 10 12 13 13 14 14 11 7 7 7 9 7 3 4 6 7 7 7 9 13 14
1 2 2 2 2 3 5 6 6 2 3 4 5 5 8 9 11 11 7 6 8 9 8 9 9 10 9 10 10 7 6 7 7 6 3 3 5 5 6 4 4 6 9
Wind_Direction
126 114 105 104 98 98 100 90 84 77 60 46 54 62 51 16 343 319 318 322 316 315 311 303 299 297 305 310 310 311 306 305 306 302 296 296 295 291 286 289 287 288 282
137 129 119 111 109 123 124 115 106 94 47 31 8 353 314 303 306 309 316 315 312 311 310 307 306 302 300 298 298 298 299 298 299 299 296 294 290 288 285 282 281 281 289
147 142 141 146 146 143 120 95 81 76 51 12 314 312 297 284 290 293 298 304 307 307 308 308 308 307 304 299 296 295 296 296 297 299 299 297 293 290 288 285 282 282 282
156 143 150 171 152 127 112 116 125 119 299 288 293 298 301 296 293 288 289 295 301 303 302 306 308 308 308 307 304 299 297 295 294 294 294 296 295 292 287 286 283 283 283
160 148 155 154 138 114 110 152 109 173 236 286 282 294 301 299 300 291 283 282 285 290 293 299 305 310 312 310 309 306 304 299 295 293 292 291 291 287 286 286 286 284 283
162 151 140 132 123 130 152 173 179 206 228 251 304 313 303 297 303 287 277 281 279 277 284 297 302 303 309 309 310 309 306 305 300 295 293 292 290 290 288 285 285 283 281
153 144 146 140 142 170 184 186 170 148 315 20 45 329 320 306 299 285 296 292 292 293 294 298 303 304 306 307 308 306 306 304 302 300 298 293 290 289 288 287 286 285 284
149 150 152 161 164 171 175 185 162 149 346 81 119 33 328 329 319 305 293 271 291 321 318 307 301 302 305 306 305 305 303 303 303 304 302 298 294 292 290 288 287 286 285
150 148 151 158 166 171 192 201 187 173 190 262 134 153 183 251 302 309 300 293 286 291 300 307 296 298 300 305 303 305 307 305 304 303 302 298 296 294 293 291 290 288 286
136 149 152 160 170 181 195 209 197 194 175 204 266 248 210 203 234 296 306 300 297 288 282 298 295 291 291 297 298 302 305 305 305 303 302 299 297 297 296 295 293 290 288
114 134 148 152 172 189 200 198 193 195 189 194 196 208 250 290 231 233 284 301 306 280 269 274 282 283 287 291 293 296 303 303 303 302 301 299 298 297 296 295 293 291 288
177 169 161 165 176 186 199 201 195 190 201 196 199 194 199 216 230 224 263 290 292 288 280 270 269 279 284 287 290 298 299 301 302 301 300 298 297 296 297 296 293 290 288
219 232 208 198 197 195 192 182 186 199 199 197 207 217 221 234 228 229 253 280 289 290 283 276 264 272 284 289 293 297 297 300 301 300 297 296 295 294 294 293 292 290 289
212 216 200 193 184 169 165 158 170 198 191 197 219 225 240 252 242 235 234 260 292 292 279 271 275 268 281 288 292 297 296 298 300 300 297 295 295 294 292 292 291 289 288
186 150 163 168 152 133 133 134 145 200 184 204 214 223 240 256 250 251 245 238 246 284 287 276 275 274 286 291 295 295 291 294 298 298 298 297 296 295 293 291 289 289 289
124 118 121 125 118 114 116 123 125 197 159 240 238 231 248 261 260 257 253 257 246 253 274 275 271 284 292 298 299 298 294 296 297 298 298 299 299 298 297 296 294 292 291
103 109 122 128 131 128 136 136 164 190 200 260 265 252 266 264 263 268 262 263 262 252 269 284 280 289 287 294 305 302 299 296 296 298 299 299 298 298 297 297 296 294 292
91 100 97 97 92 111 140 160 208 239 233 256 267 264 273 280 277 275 270 268 267 257 262 282 290 292 286 292 297 297 303 300 297 296 297 297 298 298 297 296 294 294 292
73 68 85 88 30 313 228 234 219 242 254 262 263 262 272 273 283 283 279 279 275 276 266 274 286 293 294 298 301 299 297 297 298 298 297 297 298 298 298 296 295 293 292
73 55 38 6 283 271 255 254 258 267 272 274 270 264 266 264 271 277 283 279 281 282 279 280 287 292 293 292 292 300 305 302 299 299 295 295 296 297 297 298 296 294 292
43 38 25 358 328 305 275 278 277 277 277 290 292 280 277 284 289 289 289 287 288 287 287 288 289 294 295 303 300 297 299 303 295 284 291 293 294 292 293 294 294 292 291
32 41 29 350 330 319 323 324 322 306 294 294 301 304 302 301 304 305 300 295 290 286 286 284 286 287 288 290 293 294 297 303 300 289 295 296 291 289 289 288 291 292 292
30 20 358 344 324 318 329 333 336 334 321 307 303 304 306 308 310 300 301 302 296 288 281 278 279 280 283 284 287 288 286 288 286 291 299 292 290 286 288 291 293 293 292
11 357 349 336 327 324 337 340 343 345 326 311 301 293 293 297 298 298 296 297 292 287 283 277 269 272 276 279 273 276 281 288 287 280 270 282 292 290 294 290 292 292 294
355 338 329 331 325 320 336 343 345 338 330 318 310 303 297 293 299 306 304 300 299 296 296 291 288 288 289 293 295 294 293 296 296 292 263 266 287 300 294 286 287 291 295
349 348 342 331 317 310 327 340 347 339 325 317 314 310 307 307 306 308 299 293 296 298 302 302 301 302 297 294 295 282 277 283 292 292 274 280 290 308 303 285 288 297 298
Height
1529 1530 1530 1531 1532 1533 1534 1534 1535 1536 1536 1537 1537 1538 1538 1538 1539 1539 1539 1539 1539 1539 1538 1538 1538 1537 1537 1536 1536 1535 1534 1533 1533 1532 1531 1531 1531 1530 1530 1530 1529 1529 1528
1527 1528 1529 1530 1531 1532 1532 1533 1534 1534 1535 1535 1535 1536 1536 1536 1537 1537 1537 1537 1537 1537 1536 1536 1535 1535 1534 1533 1533 1532 1531 1531 1530 1529 1528 1528 1527 1526 1526 1525 1525 1525 1524
1526 1527 1528 1529 1529 1530 1531 1531 1532 1532 1533 1533 1533 1533 1534 1534 1534 1535 1535 1535 1534 1534 1534 1533 1533 1532 1532 1530 1530 1529 1528 1527 1526 1526 1525 1524 1523 1522 1522 1521 1521 1520 1520
1524 1525 1526 1527 1528 1528 1529 1529 1530 1530 1530 1531 1531 1531 1531 1532 1532 1532 1532 1532 1532 1531 1531 1531 1530 1529 1529 1528 1527 1526 1525 1524 1523 1522 1521 1520 1519 1518 1518 1517 1516 1515 1515
1522 1523 1524 1525 1526 1526 1527 1527 1527 1528 1528 1528 1528 1528 1529 1529 1529 1529 1529 1529 1528 1528 1528 1528 1527 1526 1525 1524 1523 1522 1521 1520 1519 1518 1517 1516 1515 1514 1513 1513 1512 1511 1510
1520 1521 1522 1523 1523 1524 1524 1524 1525 1525 1525 1525 1525 1525 1525 1525 1525 1525 1525 1525 1525 1525 1524 1524 1523 1522 1522 1521 1519 1519 1517 1516 1515 1514 1513 1511 1511 1510 1509 1508 1507 1506 1505
1518 1518 1519 1520 1521 1521 1521 1522 1522 1522 1522 1522 1522 1521 1521 1522 1522 1522 1522 1521 1521 1521 1520 1520 1519 1519 1518 1517 1515 1514 1513 1512 1511 1509 1508 1507 1506 1505 1504 1503 1502 1501 1500
1515 1516 1517 1517 1518 1518 1518 1519 1519 1519 1519 1520 1520 1519 1518 1518 1517 1518 1518 1517 1517 1517 1516 1516 1515 1514 1513 1512 1511 1510 1509 1507 1506 1505 1503 1502 1501 1499 1498 1497 1496 1495 1494
1513 1513 1514 1514 1515 1515 1515 1515 1516 1516 1516 1517 1517 1518 1517 1514 1513 1513 1513 1514 1513 1513 1513 1512 1511 1510 1509 1508 1506 1505 1504 1502 1501 1499 1498 1496 1495 1494 1492 1491 1490 1489 1488
1510 1510 1511 1511 1512 1512 1512 1512 1513 1513 1513 1513 1514 1514 1515 1514 1512 1509 1509 1509 1509 1509 1508 1508 1507 1506 1504 1503 1502 1500 1499 1497 1495 1493 1492 1490 1489 1488 1486 1485 1484 1483 1481
1507 1507 1508 1508 1508 1509 1509 1509 1509 1510 1510 1510 1510 1510 1511 1510 1510 1508 1504 1504 1504 1504 1503 1503 1502 1501 1499 1498 1497 1495 1493 1491 1489 1487 1486 1484 1482 1481 1480 1478 1477 1476 1474
1504 1504 1505 1505 1505 1505 1505 1506 1506 1506 1506 1507 1507 1507 1507 1507 1506 1505 1502 1500 1498 1498 1498 1497 1497 1495 1494 1493 1491 1489 1488 1486 1483 1481 1479 1477 1476 1474 1473 1471 1470 1468 1467
1500 1501 1501 1501 1501 1502 1502 1502 1502 1502 1503 1503 1503 1503 1503 1503 1503 1502 1500 1496 1494 1492 1492 1491 1491 1490 1489 1487 1485 1484 1482 1480 1477 1475 1473 1471 1469 1467 1465 1464 1462 1461 1460
1497 1497 1497 1498 1498 1498 1498 1499 1498 1499 1499 1499 1499 1499 1499 1498 1498 1497 1496 1494 1490 1487 1486 1485 1485 1484 1483 1481 1479 1478 1475 1473 1471 1468 1466 1464 1462 1460 1458 1457 1455 1454 1452
1493 1494 1494 1494 1494 1495 1495 1495 1495 1495 1495 1495 1495 1495 1494 1494 1493 1493 1492 1490 1489 1484 1479 1479 1478 1477 1477 1475 1473 1471 1469 1467 1464 1462 1459 1457 1455 1453 1451 1449 1448 1446 1445
1490 1490 1491 1491 1491 1491 1491 1491 1492 1491 1491 1491 1491 1490 1489 1489 1488 1487 1486 1485 1484 1481 1476 1473 1473 1472 1470 1469 1467 1465 1463 1460 1458 1455 1453 1451 1448 1446 1444 1442 1440 1439 1437
1487 1487 1487 1487 1487 1488 1488 1488 1488 1488 1487 1487 1486 1486 1485 1484 1483 1482 1481 1480 1478 1477 1472 1468 1468 1466 1464 1462 1460 1459 1456 1454 1451 1449 1446 1444 1441 1439 1437 1435 1433 1431 1430
1484 1484 1484 1484 1484 1484 1484 1484 1484 1483 1483 1482 1482 1481 1480 1479 1478 1477 1475 1474 1473 1471 1469 1464 1461 1460 1458 1457 1454 1451 1449 1447 1445 1442 1440 1437 1435 1432 1430 1428 1426 1424 1423
1481 1481 1481 1481 1481 1481 1481 1480 1480 1479 1479 1478 1477 1476 1475 1474 1473 1472 1470 1469 1467 1466 1464 1460 1456 1454 1452 1451 1448 1445 1443 1441 1438 1436 1433 1431 1428 1426 1423 1421 1419 1417 1415
1478 1478 1478 1478 1478 1477 1477 1476 1476 1475 1475 1474 1473 1472 1471 1470 1468 1467 1465 1464 1462 1460 1458 1456 1452 1449 1447 1444 1442 1439 1435 1434 1431 1429 1426 1424 1422 1419 1417 1414 1412 1410 1408
1476 1475 1475 1475 1475 1474 1473 1473 1472 1471 1470 1469 1468 1467 1466 1465 1464 1462 1461 1459 1458 1455 1453 1450 1447 1444 1441 1439 1437 1434 1430 1426 1424 1422 1419 1417 1414 1411 1409 1407 1405 1402 1400
1473 1472 1472 1472 1471 1471 1470 1470 1469 1467 1466 1465 1464 1463 1461 1460 1459 1457 1456 1454 1453 1451 1448 1446 1442 1439 1436 1434 1432 1429 1425 1421 1416 1416 1413 1409 1408 1405 1402 1400 1398 1396 1393
1470 1470 1469 1469 1468 1468 1467 1466 1465 1464 1462 1461 1460 1458 1456 1455 1454 1452 1450 1449 1447 1446 1444 1442 1437 1434 1431 1429 1427 1423 1421 1417 1413 1411 1408 1402 1401 1398 1396 1393 1391 1389 1386
1467 1467 1466 1466 1465 1464 1463 1462 1461 1459 1458 1457 1455 1454 1452 1450 1449 1447 1445 1443 1441 1439 1438 1435 1432 1429 1426 1424 1422 1419 1415 1412 1408 1406 1404 1398 1394 1392 1389 1387 1385 1382 1380
1464 1464 1463 1462 1461 1460 1460 1458 1457 1455 1454 1452 1451 1449 1448 1446 1444 1443 1440 1437 1435 1433 1432 1429 1427 1424 1421 1419 1417 1414 1410 1407 1401 1399 1398 1394 1389 1385 1382 1379 1378 1376 1373
1461 1461 1460 1459 1458 1457 1456 1455 1454 1452 1450 1448 1447 1445 1443 1442 1440 1438 1435 1432 1429 1427 1425 1422 1420 1417 1415 1412 1410 1408 1405 1402 1398 1394 1392 1390 1386 1383 1376 1372 1371 1369 1367